When you browse on this site, cookies collect data to enhance your experience and personalize the content and advertising you see.
Visit our Privacy Policy to learn more. By continuing to use the site, you agree to this use of cookies and data.
  • En España
  • Lista de países
  • Para 7 días
  • Temperatura del agua
  • El tiempo en el mapa
  • Informadores
  • user-avatar
    Iniciar sesión

    Tiempo cada hora Tadzhura

    Hoy, 22 Octubre, Martes

    Tiempo Temperatura Precipitaciones Viento Presión Humedad
    00:00 +30°C° 0 mm 2 mps 755 mmHg 59%
    01:00 +30°C° 0 mm 2 mps 755 mmHg 58%
    02:00 +30°C° 0 mm 2 mps 755 mmHg 58%
    03:00 +29°C° 0 mm 2 mps 754 mmHg 59%
    04:00 +29°C° 0 mm 2 mps 755 mmHg 60%
    05:00 +29°C° 0 mm 2 mps 755 mmHg 61%
    06:00 +29°C° 0 mm 2 mps 756 mmHg 61%
    07:00 +30°C° 0 mm 3 mps 756 mmHg 56%
    08:00 +31°C° 0 mm 3 mps 757 mmHg 51%
    09:00 +33°C° 0 mm 4 mps 757 mmHg 48%
    10:00 +34°C° 0 mm 4 mps 756 mmHg 45%
    11:00 +34°C° 0 mm 4 mps 756 mmHg 42%
    12:00 +35°C° 0 mm 5 mps 755 mmHg 40%
    13:00 +35°C° 0 mm 5 mps 755 mmHg 40%
    14:00 +35°C° 0 mm 4 mps 754 mmHg 40%
    15:00 +35°C° 0 mm 4 mps 753 mmHg 40%
    16:00 +34°C° 0 mm 4 mps 753 mmHg 42%
    17:00 +34°C° 0 mm 4 mps 754 mmHg 44%
    18:00 +33°C° 0 mm 3 mps 754 mmHg 46%
    19:00 +33°C° 0 mm 3 mps 754 mmHg 47%
    20:00 +31°C° 0 mm 3 mps 755 mmHg 48%
    21:00 +31°C° 0 mm 2 mps 755 mmHg 49%
    22:00 +31°C° 0 mm 2 mps 755 mmHg 50%
    23:00 +30°C° 0 mm 2 mps 755 mmHg 52%

    Mañana, 23 Octubre, Miércoles

    Tiempo Temperatura Precipitaciones Viento Presión Humedad
    00:00 +30°C° 0 mm 2 mps 755 mmHg 54%
    01:00 +30°C° 0 mm 2 mps 755 mmHg 55%
    02:00 +30°C° 0 mm 2 mps 755 mmHg 57%
    03:00 +29°C° 0 mm 2 mps 754 mmHg 58%
    04:00 +29°C° 0 mm 1 mps 755 mmHg 57%
    05:00 +29°C° 0 mm 1 mps 755 mmHg 55%
    06:00 +29°C° 0 mm 1 mps 756 mmHg 54%
    07:00 +30°C° 0 mm 2 mps 756 mmHg 48%
    08:00 +31°C° 0 mm 2 mps 756 mmHg 41%
    09:00 +34°C° 0 mm 3 mps 757 mmHg 35%
    10:00 +34°C° 0 mm 3 mps 756 mmHg 35%
    11:00 +35°C° 0 mm 4 mps 756 mmHg 34%
    12:00 +35°C° 0 mm 4 mps 755 mmHg 34%
    13:00 +35°C° 0 mm 4 mps 755 mmHg 34%
    14:00 +35°C° 0 mm 5 mps 754 mmHg 33%
    15:00 +35°C° 0 mm 5 mps 753 mmHg 33%
    16:00 +35°C° 0 mm 4 mps 754 mmHg 34%
    17:00 +34°C° 0 mm 4 mps 754 mmHg 35%
    18:00 +33°C° 0 mm 3 mps 754 mmHg 36%
    19:00 +33°C° 0 mm 3 mps 755 mmHg 38%
    20:00 +33°C° 0 mm 3 mps 755 mmHg 39%
    21:00 +31°C° 0 mm 2 mps 756 mmHg 40%
    22:00 +31°C° 0 mm 2 mps 756 mmHg 41%
    23:00 +31°C° 0 mm 2 mps 755 mmHg 42%

    Pasado mañana, 24 Octubre, Jueves

    Tiempo Temperatura Precipitaciones Viento Presión Humedad
    00:00 +31°C° 0 mm 2 mps 755 mmHg 43%
    01:00 +30°C° 0 mm 2 mps 755 mmHg 45%
    02:00 +30°C° 0 mm 2 mps 755 mmHg 46%
    03:00 +30°C° 0 mm 2 mps 755 mmHg 47%
    04:00 +29°C° 0 mm 2 mps 755 mmHg 48%
    05:00 +29°C° 0 mm 2 mps 756 mmHg 49%
    06:00 +29°C° 0 mm 1 mps 756 mmHg 50%
    07:00 +30°C° 0 mm 2 mps 757 mmHg 46%
    08:00 +31°C° 0 mm 2 mps 757 mmHg 42%
    09:00 +33°C° 0 mm 3 mps 757 mmHg 38%
    10:00 +34°C° 0 mm 3 mps 757 mmHg 37%
    11:00 +35°C° 0 mm 4 mps 756 mmHg 35%
    12:00 +35°C° 0 mm 4 mps 755 mmHg 33%
    13:00 +35°C° 0 mm 4 mps 755 mmHg 33%
    14:00 +35°C° 0 mm 5 mps 755 mmHg 32%
    15:00 +35°C° 0 mm 5 mps 754 mmHg 32%
    16:00 +35°C° 0 mm 4 mps 754 mmHg 35%
    17:00 +34°C° 0 mm 4 mps 755 mmHg 37%
    18:00 +33°C° 0 mm 4 mps 755 mmHg 39%
    19:00 +33°C° 0 mm 3 mps 755 mmHg 41%
    20:00 +31°C° 0 mm 3 mps 756 mmHg 42%
    21:00 +31°C° 0 mm 2 mps 756 mmHg 44%
    22:00 +31°C° 0 mm 2 mps 756 mmHg 45%
    23:00 +30°C° 0 mm 2 mps 756 mmHg 46%

    25 Octubre, Viernes

    Tiempo Temperatura Precipitaciones Viento Presión Humedad
    00:00 +30°C° 0 mm 2 mps 755 mmHg 48%
    01:00 +30°C° 0 mm 2 mps 755 mmHg 50%
    02:00 +29°C° 0 mm 2 mps 755 mmHg 53%
    03:00 +29°C° 0 mm 2 mps 755 mmHg 55%
    04:00 +29°C° 0 mm 2 mps 755 mmHg 56%
    05:00 +29°C° 0 mm 2 mps 756 mmHg 57%
    06:00 +28°C° 0 mm 2 mps 756 mmHg 58%
    07:00 +29°C° 0 mm 2 mps 756 mmHg 54%
    08:00 +30°C° 0 mm 3 mps 757 mmHg 50%
    09:00 +31°C° 0 mm 3 mps 757 mmHg 47%
    10:00 +33°C° 0 mm 3 mps 756 mmHg 43%
    11:00 +34°C° 0 mm 3 mps 756 mmHg 39%
    12:00 +35°C° 0 mm 4 mps 755 mmHg 35%
    13:00 +35°C° 0 mm 4 mps 755 mmHg 35%
    14:00 +35°C° 0 mm 4 mps 754 mmHg 36%
    15:00 +35°C° 0 mm 4 mps 753 mmHg 37%
    16:00 +34°C° 0 mm 4 mps 753 mmHg 38%
    17:00 +34°C° 0 mm 3 mps 754 mmHg 40%
    18:00 +33°C° 0 mm 3 mps 754 mmHg 41%
    19:00 +33°C° 0 mm 3 mps 754 mmHg 42%
    20:00 +31°C° 0 mm 3 mps 755 mmHg 42%
    21:00 +31°C° 0 mm 3 mps 755 mmHg 43%
    22:00 +30°C° 0 mm 3 mps 755 mmHg 46%
    23:00 +30°C° 0 mm 3 mps 755 mmHg 50%

    26 Octubre, Sábado

    Tiempo Temperatura Precipitaciones Viento Presión Humedad
    00:00 +29°C° 0 mm 3 mps 755 mmHg 53%
    01:00 +29°C° 0 mm 3 mps 755 mmHg 56%
    02:00 +29°C° 0 mm 2 mps 755 mmHg 59%
    03:00 +28°C° 0 mm 2 mps 755 mmHg 62%
    04:00 +28°C° 0 mm 2 mps 755 mmHg 64%
    05:00 +28°C° 0 mm 2 mps 755 mmHg 66%
    06:00 +28°C° 0 mm 2 mps 756 mmHg 68%
    07:00 +29°C° 0 mm 2 mps 756 mmHg 62%
    08:00 +30°C° 0 mm 3 mps 756 mmHg 56%
    09:00 +31°C° 0 mm 3 mps 757 mmHg 50%
    10:00 +33°C° 0 mm 3 mps 756 mmHg 46%
    11:00 +34°C° 0 mm 3 mps 755 mmHg 43%
    12:00 +35°C° 0 mm 3 mps 755 mmHg 39%
    13:00 +35°C° 0 mm 4 mps 754 mmHg 39%
    14:00 +35°C° 0 mm 4 mps 753 mmHg 39%
    15:00 +35°C° 0 mm 4 mps 753 mmHg 38%
    16:00 +34°C° 0 mm 4 mps 753 mmHg 40%
    17:00 +34°C° 0 mm 3 mps 753 mmHg 42%
    18:00 +33°C° 0 mm 3 mps 753 mmHg 43%
    19:00 +33°C° 0 mm 3 mps 754 mmHg 45%
    20:00 +33°C° 0 mm 3 mps 754 mmHg 47%
    21:00 +31°C° 0 mm 2 mps 755 mmHg 49%
    22:00 +31°C° 0 mm 2 mps 754 mmHg 52%
    23:00 +30°C° 0 mm 2 mps 754 mmHg 54%

    27 Octubre, Domingo

    Tiempo Temperatura Precipitaciones Viento Presión Humedad
    00:00 +30°C° 0 mm 2 mps 754 mmHg 57%
    01:00 +30°C° 0 mm 2 mps 754 mmHg 59%
    02:00 +29°C° 0 mm 1 mps 754 mmHg 60%
    03:00 +29°C° 0 mm 1 mps 753 mmHg 62%
    04:00 +29°C° 0 mm 1 mps 754 mmHg 63%
    05:00 +28°C° 0 mm 1 mps 754 mmHg 64%
    06:00 +28°C° 0 mm 1 mps 755 mmHg 66%
    07:00 +29°C° 0 mm 1 mps 755 mmHg 60%
    08:00 +30°C° 0 mm 2 mps 756 mmHg 53%
    09:00 +32°C° 0 mm 2 mps 756 mmHg 47%
    10:00 +34°C° 0 mm 2 mps 755 mmHg 42%
    11:00 +35°C° 0 mm 3 mps 755 mmHg 36%
    12:00 +36°C° 0 mm 3 mps 754 mmHg 31%
    13:00 +36°C° 0 mm 4 mps 753 mmHg 31%
    14:00 +36°C° 0 mm 4 mps 753 mmHg 32%
    15:00 +36°C° 0 mm 5 mps 752 mmHg 32%
    16:00 +35°C° 0 mm 4 mps 752 mmHg 35%
    17:00 +34°C° 0 mm 4 mps 752 mmHg 38%
    18:00 +33°C° 0 mm 3 mps 753 mmHg 41%
    19:00 +33°C° 0 mm 3 mps 753 mmHg 42%
    20:00 +31°C° 0 mm 3 mps 753 mmHg 44%
    21:00 +31°C° 0 mm 2 mps 754 mmHg 45%
    22:00 +30°C° 0 mm 2 mps 754 mmHg 47%
    23:00 +30°C° 0 mm 2 mps 753 mmHg 49%

    28 Octubre, Lunes

    Tiempo Temperatura Precipitaciones Viento Presión Humedad
    00:00 +30°C° 0 mm 2 mps 753 mmHg 51%
    01:00 +29°C° 0 mm 2 mps 753 mmHg 53%
    02:00 +29°C° 0 mm 2 mps 753 mmHg 55%
    03:00 +28°C° 0 mm 2 mps 753 mmHg 57%
    04:00 +28°C° 0 mm 2 mps 753 mmHg 58%
    05:00 +28°C° 0 mm 2 mps 754 mmHg 60%
    06:00 +28°C° 0 mm 2 mps 754 mmHg 61%
    07:00 +29°C° 0 mm 2 mps 754 mmHg 57%
    08:00 +30°C° 0 mm 2 mps 755 mmHg 52%
    09:00 +31°C° 0 mm 2 mps 755 mmHg 48%
    10:00 +33°C° 0 mm 3 mps 755 mmHg 45%
    11:00 +34°C° 0 mm 3 mps 754 mmHg 41%
    12:00 +35°C° 0 mm 4 mps 754 mmHg 37%
    13:00 +35°C° 0 mm 4 mps 753 mmHg 38%
    14:00 +35°C° 0 mm 4 mps 753 mmHg 38%
    15:00 +35°C° 0 mm 4 mps 752 mmHg 39%
    16:00 +34°C° 0 mm 4 mps 752 mmHg 42%
    17:00 +33°C° 0 mm 4 mps 752 mmHg 46%
    18:00 +31°C° 0 mm 3 mps 753 mmHg 49%
    19:00 +31°C° 0 mm 3 mps 753 mmHg 51%
    20:00 +31°C° 0 mm 3 mps 753 mmHg 52%
    21:00 +30°C° 0 mm 3 mps 754 mmHg 54%
    22:00 +30°C° 0 mm 2 mps 754 mmHg 57%
    23:00 +29°C° 0 mm 2 mps 753 mmHg 59%
    Mostrar más